Find Starlink 32735

NORAD ID: 63044 Int'l Des: 2025-034 Owner: SPXS Country: US Constellation: starlink operational
LEOCIRCULAR

Live Position

Loading 3D Globe...

About Starlink 32735

Description loading...

Upcoming Passes

Passes for default location (London). Set your location on the main map for personalized predictions.

Altitude History

Loading altitude history...

Two-Line Element Set

1 63044U 25034R 26105.22439469 .00009669 00000-0 33819-3 0 9991
2 63044 53.1584 100.9797 0001245 84.3703 275.7440 15.30196311 64509
Epoch: Apr 15, 2026 • Age: 6 hours

Current Status

Altitude 477.0 km
Velocity 7.63 km/s
Sub-Earth Point -4.56°S, 83.73°W
Launch Date Feb 18, 2025
Age 1.1 years
Type internet

Technical Details

Classification Payload
Mass 730.00 kg
Dry Mass 700.00 kg
Total Mass 730.00 kg
Length 0.30 m
Diameter 4.10 m
Span 29.00 m
Shape Box + pan
Manufacturer SPXS
Bus Type Starlink V2M
Phase Status In Orbit
Owner/State SPXS/US

Most Searched